{"data":{"norad_id":68445,"intl_designator":"2026-067AF","name":"DB SKYFORGE CORE TU","alt_names":[],"object_type":"PAYLOAD","status":"ACTIVE","operator":null,"country":"US","launch_date":"2026-03-30","launch_site_code":"AFWTR","launch_vehicle":null,"mission":null,"orbit_class":"UNKNOWN","rcs_meters":null,"size_class":null,"mass_kg":null,"dimensions":null,"purposes":[],"wikipedia_slug":null,"has_3d_model":false,"image_url":null,"decayed_at":null,"tle_current":{"epoch":"2026-09-20T03:08:37.053024Z","epoch_age_seconds":100757,"freshness":"FRESH","line1":"1 68445U 26067AF  26263.13098441  .00002672  00000+0  13469-3 0  9999","line2":"2 68445  97.4632 220.0338 0006753 102.7760 257.4229 15.17996191 26336","mean_motion":15.17996191,"eccentricity":0.0006753,"inclination_deg":97.4632,"raan_deg":220.0338,"arg_perigee_deg":102.776,"mean_anomaly_deg":257.4229,"bstar":0.00013469,"rev_number":2633,"period_min":94.861898108676,"perigee_km":507.24450516116,"apogee_km":516.550185548,"semimajor_km":6890.0343453546,"source":"CELESTRAK","updated_at":"2026-09-20T09:00:24.206676Z"}}}